GEFSNE_prec_meanprecacc_162.txt.gz
Total_Precipitation_Accumulation
1.15 1.26 1.34 1.41 1.46 1.42 1.44 1.48 1.55 1.54 1.43 1.24 1.18 1.13 1.08 1.08 1.25 0.99 0.98 1.19 1.10 1.03 0.96 0.90 0.86 0.79 0.73 0.68 0.65 0.64 0.64 0.66 0.71 0.74 0.77 0.83 0.92 1.04
0.90 1.00 1.11 1.22 1.37 1.44 1.52 1.54 1.52 1.52 1.46 1.27 1.20 1.18 1.11 1.04 1.25 1.04 1.02 1.08 0.95 0.86 0.79 0.73 0.70 0.65 0.61 0.60 0.60 0.58 0.57 0.57 0.57 0.57 0.61 0.64 0.69 0.78
0.72 0.78 0.87 0.95 1.08 1.18 1.28 1.33 1.40 1.41 1.41 1.32 1.23 1.20 1.17 1.14 1.13 0.99 0.91 0.86 0.83 0.78 0.67 0.62 0.59 0.55 0.53 0.55 0.56 0.55 0.55 0.54 0.53 0.53 0.55 0.57 0.58 0.60
0.57 0.62 0.69 0.72 0.81 0.85 0.94 1.03 1.10 1.17 1.20 1.29 1.33 1.25 1.19 1.17 1.09 0.95 0.76 0.66 0.67 0.71 0.63 0.61 0.60 0.59 0.57 0.56 0.56 0.54 0.51 0.45 0.44 0.46 0.49 0.48 0.48 0.51
0.44 0.46 0.51 0.54 0.59 0.60 0.64 0.70 0.79 0.91 1.06 1.16 1.23 1.21 1.18 1.16 1.09 0.88 0.73 0.70 0.56 0.57 0.54 0.54 0.56 0.57 0.55 0.50 0.46 0.44 0.42 0.35 0.29 0.29 0.31 0.34 0.35 0.37
0.34 0.37 0.41 0.43 0.45 0.47 0.49 0.54 0.62 0.78 0.93 1.01 0.99 0.98 1.00 0.96 0.95 0.87 0.75 0.65 0.55 0.41 0.40 0.37 0.38 0.37 0.39 0.37 0.35 0.34 0.33 0.32 0.29 0.25 0.22 0.20 0.19 0.18
0.28 0.28 0.31 0.36 0.40 0.40 0.40 0.48 0.58 0.73 0.83 0.87 0.85 0.80 0.78 0.80 0.80 0.74 0.70 0.63 0.52 0.39 0.37 0.31 0.30 0.32 0.34 0.34 0.32 0.28 0.24 0.21 0.21 0.18 0.16 0.14 0.12 0.11
0.31 0.27 0.27 0.27 0.30 0.33 0.36 0.43 0.52 0.60 0.64 0.68 0.69 0.71 0.69 0.68 0.71 0.69 0.67 0.67 0.63 0.47 0.43 0.36 0.28 0.35 0.36 0.33 0.26 0.21 0.19 0.18 0.18 0.16 0.15 0.15 0.13 0.10
0.36 0.34 0.28 0.24 0.31 0.34 0.35 0.38 0.42 0.44 0.50 0.60 0.66 0.67 0.65 0.70 0.78 0.78 0.76 0.73 0.67 0.53 0.54 0.53 0.40 0.41 0.30 0.23 0.22 0.18 0.16 0.17 0.16 0.12 0.10 0.10 0.10 0.09
0.36 0.37 0.38 0.39 0.35 0.35 0.31 0.33 0.38 0.44 0.49 0.53 0.64 0.65 0.60 0.65 0.77 0.80 0.75 0.70 0.66 0.62 0.63 0.65 0.49 0.41 0.29 0.35 0.32 0.23 0.17 0.19 0.18 0.11 0.08 0.07 0.07 0.08
0.28 0.31 0.33 0.35 0.34 0.35 0.35 0.38 0.40 0.45 0.44 0.50 0.55 0.60 0.65 0.68 0.69 0.71 0.78 0.85 0.82 0.72 0.68 0.71 0.60 0.47 0.38 0.43 0.40 0.30 0.27 0.32 0.29 0.18 0.10 0.08 0.07 0.08
0.27 0.28 0.29 0.26 0.25 0.26 0.30 0.41 0.50 0.48 0.45 0.49 0.65 0.82 0.89 0.86 0.76 0.76 0.85 0.90 0.89 0.91 0.77 0.74 0.73 0.58 0.54 0.45 0.43 0.45 0.48 0.55 0.49 0.33 0.18 0.12 0.12 0.16
0.28 0.29 0.29 0.23 0.20 0.21 0.28 0.39 0.45 0.43 0.48 0.64 0.84 0.95 0.93 0.84 0.74 0.70 0.76 0.85 0.90 0.96 0.78 0.73 0.78 0.73 0.76 0.63 0.44 0.47 0.59 0.73 0.74 0.60 0.37 0.24 0.19 0.19
0.28 0.27 0.26 0.24 0.21 0.22 0.25 0.31 0.33 0.41 0.59 0.79 0.89 0.87 0.74 0.62 0.60 0.57 0.59 0.66 0.78 0.79 0.69 0.68 0.77 0.77 0.78 0.71 0.55 0.51 0.64 0.80 0.86 0.77 0.60 0.45 0.35 0.29
0.27 0.25 0.25 0.26 0.29 0.35 0.36 0.34 0.40 0.55 0.69 0.78 0.81 0.74 0.63 0.55 0.52 0.52 0.51 0.58 0.62 0.57 0.48 0.50 0.62 0.66 0.72 0.72 0.69 0.72 0.80 0.96 0.98 0.89 0.77 0.64 0.50 0.39
0.26 0.30 0.38 0.43 0.45 0.47 0.51 0.55 0.57 0.59 0.59 0.67 0.67 0.62 0.53 0.48 0.47 0.44 0.48 0.53 0.58 0.58 0.49 0.44 0.51 0.62 0.73 0.73 0.79 0.87 0.88 1.07 1.09 0.98 0.90 0.82 0.68 0.52
0.24 0.35 0.52 0.58 0.58 0.56 0.55 0.54 0.56 0.54 0.55 0.56 0.54 0.53 0.51 0.46 0.44 0.40 0.41 0.44 0.51 0.53 0.51 0.45 0.47 0.50 0.52 0.56 0.67 0.74 0.79 0.94 1.05 0.99 0.92 0.99 0.97 0.75
0.28 0.47 0.56 0.60 0.62 0.56 0.51 0.48 0.46 0.46 0.45 0.45 0.46 0.46 0.47 0.44 0.42 0.38 0.36 0.39 0.44 0.43 0.42 0.39 0.39 0.40 0.38 0.40 0.60 0.69 0.72 0.90 0.98 0.89 0.78 0.91 1.05 0.89
0.30 0.42 0.49 0.54 0.54 0.49 0.45 0.44 0.44 0.41 0.38 0.38 0.40 0.41 0.40 0.39 0.38 0.37 0.33 0.35 0.39 0.39 0.36 0.31 0.30 0.31 0.33 0.45 0.63 0.80 0.78 0.81 0.82 0.76 0.70 0.71 0.91 0.92
0.31 0.36 0.41 0.43 0.45 0.43 0.40 0.37 0.36 0.34 0.32 0.32 0.33 0.35 0.36 0.35 0.32 0.32 0.31 0.29 0.32 0.34 0.32 0.29 0.27 0.29 0.31 0.41 0.63 0.81 0.82 0.66 0.58 0.63 0.66 0.67 0.78 0.78
0.28 0.31 0.32 0.31 0.32 0.34 0.35 0.34 0.30 0.29 0.27 0.27 0.27 0.29 0.30 0.31 0.31 0.27 0.24 0.19 0.23 0.26 0.27 0.28 0.27 0.22 0.21 0.24 0.43 0.63 0.71 0.77 0.65 0.55 0.54 0.56 0.54 0.45
0.24 0.27 0.26 0.25 0.25 0.25 0.24 0.24 0.23 0.21 0.19 0.20 0.23 0.26 0.26 0.26 0.25 0.22 0.19 0.20 0.20 0.21 0.22 0.23 0.22 0.18 0.19 0.25 0.41 0.55 0.57 0.53 0.52 0.54 0.52 0.37 0.26 0.28
0.23 0.24 0.21 0.20 0.19 0.18 0.17 0.16 0.16 0.16 0.15 0.17 0.19 0.22 0.21 0.19 0.18 0.15 0.12 0.10 0.10 0.11 0.14 0.17 0.16 0.15 0.15 0.19 0.26 0.32 0.32 0.28 0.21 0.21 0.36 0.41 0.32 0.32

GEFSNE_prec_meanprecacc_168.txt.gz
Total_Precipitation_Accumulation
1.20 1.30 1.38 1.44 1.48 1.44 1.47 1.51 1.58 1.57 1.45 1.26 1.21 1.17 1.13 1.13 1.29 1.02 1.01 1.23 1.14 1.06 1.00 0.94 0.90 0.82 0.77 0.73 0.70 0.69 0.68 0.70 0.75 0.78 0.83 0.91 1.00 1.13
0.95 1.04 1.16 1.26 1.40 1.47 1.55 1.57 1.57 1.56 1.50 1.31 1.25 1.25 1.18 1.11 1.31 1.08 1.06 1.13 1.00 0.91 0.83 0.77 0.74 0.69 0.65 0.65 0.65 0.63 0.61 0.61 0.61 0.62 0.66 0.70 0.77 0.86
0.77 0.83 0.93 0.99 1.12 1.22 1.30 1.35 1.43 1.45 1.46 1.37 1.28 1.27 1.24 1.21 1.19 1.05 0.96 0.91 0.88 0.84 0.73 0.67 0.64 0.59 0.57 0.59 0.61 0.59 0.58 0.57 0.58 0.58 0.60 0.63 0.65 0.67
0.62 0.68 0.74 0.77 0.86 0.90 0.97 1.06 1.13 1.20 1.24 1.34 1.41 1.34 1.27 1.25 1.16 1.01 0.82 0.72 0.72 0.75 0.68 0.65 0.65 0.64 0.61 0.60 0.59 0.57 0.53 0.48 0.47 0.51 0.54 0.54 0.54 0.57
0.46 0.50 0.56 0.60 0.62 0.62 0.66 0.72 0.81 0.93 1.08 1.19 1.28 1.29 1.26 1.25 1.21 0.98 0.80 0.77 0.62 0.62 0.58 0.58 0.59 0.60 0.59 0.53 0.49 0.47 0.45 0.38 0.32 0.32 0.35 0.39 0.42 0.43
0.36 0.39 0.44 0.46 0.47 0.48 0.50 0.55 0.63 0.79 0.94 1.03 1.02 1.03 1.07 1.03 1.06 0.98 0.85 0.74 0.62 0.46 0.44 0.41 0.40 0.39 0.41 0.40 0.38 0.37 0.37 0.36 0.32 0.29 0.27 0.25 0.24 0.25
0.29 0.29 0.32 0.37 0.41 0.41 0.41 0.48 0.59 0.74 0.84 0.90 0.91 0.84 0.82 0.84 0.86 0.80 0.80 0.74 0.62 0.46 0.42 0.33 0.31 0.33 0.36 0.36 0.35 0.31 0.27 0.25 0.25 0.22 0.20 0.18 0.17 0.17
0.32 0.28 0.27 0.28 0.31 0.34 0.37 0.44 0.53 0.61 0.66 0.71 0.74 0.75 0.72 0.71 0.75 0.75 0.74 0.75 0.71 0.53 0.47 0.39 0.30 0.37 0.37 0.34 0.29 0.25 0.23 0.22 0.22 0.21 0.20 0.20 0.18 0.15
0.37 0.35 0.29 0.25 0.32 0.35 0.36 0.39 0.44 0.46 0.52 0.62 0.68 0.69 0.67 0.72 0.81 0.81 0.80 0.77 0.73 0.58 0.57 0.56 0.44 0.44 0.32 0.24 0.24 0.21 0.20 0.21 0.20 0.17 0.17 0.17 0.17 0.16
0.37 0.37 0.39 0.39 0.36 0.36 0.33 0.35 0.40 0.45 0.50 0.55 0.66 0.67 0.62 0.66 0.78 0.82 0.78 0.72 0.68 0.65 0.67 0.69 0.51 0.44 0.30 0.36 0.34 0.25 0.20 0.23 0.23 0.16 0.13 0.13 0.14 0.15
0.29 0.32 0.33 0.36 0.35 0.36 0.36 0.38 0.40 0.45 0.45 0.52 0.57 0.61 0.67 0.70 0.70 0.72 0.80 0.88 0.84 0.74 0.71 0.76 0.64 0.50 0.40 0.45 0.42 0.32 0.29 0.34 0.32 0.21 0.14 0.13 0.14 0.15
0.27 0.29 0.30 0.27 0.26 0.26 0.30 0.41 0.50 0.48 0.45 0.50 0.66 0.83 0.89 0.87 0.77 0.77 0.87 0.93 0.92 0.93 0.79 0.78 0.80 0.64 0.57 0.47 0.45 0.46 0.50 0.57 0.51 0.35 0.21 0.17 0.17 0.21
0.29 0.30 0.30 0.23 0.20 0.22 0.28 0.39 0.45 0.43 0.49 0.65 0.86 0.97 0.94 0.85 0.75 0.71 0.78 0.87 0.93 0.99 0.81 0.76 0.81 0.80 0.81 0.66 0.46 0.49 0.61 0.74 0.76 0.62 0.39 0.27 0.23 0.23
0.28 0.27 0.26 0.24 0.21 0.23 0.25 0.31 0.34 0.42 0.60 0.80 0.91 0.88 0.74 0.63 0.60 0.58 0.59 0.67 0.79 0.80 0.71 0.71 0.80 0.81 0.83 0.76 0.59 0.54 0.66 0.82 0.88 0.79 0.62 0.49 0.38 0.31
0.27 0.25 0.25 0.27 0.29 0.35 0.37 0.35 0.41 0.56 0.70 0.79 0.82 0.75 0.65 0.57 0.53 0.53 0.52 0.59 0.64 0.59 0.50 0.52 0.64 0.69 0.76 0.77 0.74 0.77 0.84 0.99 1.01 0.92 0.80 0.66 0.52 0.41
0.27 0.30 0.38 0.43 0.45 0.48 0.51 0.56 0.58 0.60 0.60 0.69 0.69 0.64 0.55 0.51 0.49 0.46 0.50 0.55 0.60 0.60 0.51 0.46 0.53 0.64 0.77 0.77 0.83 0.91 0.93 1.11 1.12 1.00 0.93 0.84 0.70 0.54
0.25 0.36 0.52 0.58 0.58 0.57 0.55 0.55 0.56 0.55 0.57 0.58 0.56 0.55 0.53 0.49 0.47 0.42 0.43 0.47 0.54 0.56 0.53 0.47 0.49 0.52 0.54 0.59 0.71 0.78 0.84 0.98 1.09 1.01 0.94 1.01 0.98 0.76
0.29 0.48 0.57 0.60 0.62 0.56 0.52 0.48 0.47 0.47 0.45 0.46 0.47 0.47 0.48 0.46 0.45 0.41 0.39 0.42 0.47 0.46 0.44 0.42 0.42 0.44 0.42 0.44 0.63 0.73 0.75 0.93 1.01 0.90 0.80 0.92 1.06 0.89
0.32 0.43 0.50 0.54 0.55 0.49 0.46 0.45 0.45 0.42 0.40 0.39 0.41 0.42 0.41 0.41 0.40 0.40 0.37 0.38 0.42 0.41 0.38 0.33 0.33 0.35 0.37 0.50 0.67 0.82 0.80 0.84 0.84 0.78 0.72 0.73 0.92 0.93
0.31 0.37 0.41 0.44 0.46 0.43 0.40 0.38 0.37 0.35 0.33 0.33 0.34 0.36 0.37 0.35 0.34 0.35 0.34 0.32 0.35 0.36 0.34 0.31 0.30 0.32 0.34 0.43 0.67 0.83 0.84 0.68 0.60 0.64 0.67 0.69 0.80 0.80
0.28 0.31 0.32 0.32 0.33 0.34 0.35 0.34 0.31 0.29 0.28 0.28 0.29 0.31 0.31 0.31 0.32 0.29 0.26 0.22 0.25 0.28 0.29 0.30 0.29 0.25 0.24 0.26 0.46 0.66 0.73 0.79 0.67 0.56 0.55 0.57 0.55 0.46
0.24 0.27 0.26 0.25 0.25 0.25 0.25 0.24 0.23 0.21 0.19 0.21 0.25 0.29 0.28 0.27 0.27 0.24 0.21 0.22 0.23 0.24 0.25 0.25 0.24 0.21 0.21 0.28 0.43 0.57 0.61 0.55 0.54 0.56 0.54 0.39 0.26 0.28
0.24 0.25 0.22 0.21 0.20 0.19 0.17 0.17 0.16 0.16 0.16 0.18 0.21 0.25 0.24 0.21 0.19 0.16 0.14 0.13 0.12 0.13 0.17 0.20 0.20 0.19 0.19 0.22 0.29 0.35 0.35 0.31 0.23 0.24 0.38 0.43 0.33 0.33

GEFSNE_prec_meanprecacc_174.txt.gz
Total_Precipitation_Accumulation
1.28 1.40 1.48 1.53 1.55 1.50 1.52 1.56 1.64 1.61 1.49 1.30 1.26 1.21 1.17 1.17 1.33 1.06 1.06 1.26 1.17 1.08 1.02 0.97 0.95 0.89 0.82 0.78 0.74 0.72 0.72 0.73 0.78 0.83 0.88 0.96 1.07 1.22
1.03 1.15 1.26 1.36 1.50 1.54 1.60 1.63 1.63 1.63 1.57 1.36 1.30 1.30 1.23 1.16 1.37 1.14 1.11 1.19 1.05 0.95 0.86 0.80 0.78 0.74 0.70 0.69 0.69 0.68 0.65 0.64 0.64 0.66 0.71 0.75 0.83 0.93
0.81 0.90 1.03 1.11 1.23 1.31 1.38 1.42 1.51 1.54 1.53 1.43 1.33 1.33 1.28 1.27 1.28 1.14 1.04 0.98 0.95 0.90 0.77 0.70 0.67 0.63 0.62 0.64 0.66 0.65 0.64 0.62 0.62 0.62 0.65 0.68 0.71 0.74
0.67 0.74 0.82 0.87 0.97 1.00 1.07 1.15 1.22 1.28 1.33 1.43 1.49 1.41 1.32 1.31 1.23 1.07 0.89 0.78 0.78 0.82 0.74 0.69 0.68 0.68 0.67 0.66 0.66 0.63 0.59 0.52 0.52 0.55 0.58 0.58 0.58 0.61
0.53 0.58 0.64 0.69 0.72 0.72 0.76 0.80 0.88 0.99 1.15 1.25 1.34 1.35 1.31 1.30 1.27 1.03 0.86 0.83 0.67 0.67 0.63 0.64 0.65 0.65 0.65 0.60 0.55 0.52 0.49 0.41 0.35 0.36 0.39 0.43 0.45 0.46
0.40 0.45 0.49 0.50 0.52 0.54 0.56 0.60 0.68 0.84 1.00 1.09 1.08 1.10 1.13 1.07 1.12 1.04 0.93 0.81 0.68 0.51 0.49 0.46 0.48 0.47 0.48 0.45 0.43 0.41 0.40 0.39 0.36 0.33 0.31 0.28 0.27 0.27
0.32 0.33 0.36 0.40 0.43 0.43 0.43 0.51 0.63 0.79 0.89 0.96 0.98 0.92 0.90 0.90 0.91 0.86 0.86 0.82 0.69 0.53 0.48 0.39 0.37 0.40 0.43 0.42 0.40 0.35 0.31 0.28 0.28 0.26 0.24 0.22 0.20 0.19
0.35 0.31 0.30 0.30 0.34 0.36 0.39 0.45 0.55 0.64 0.70 0.76 0.81 0.82 0.80 0.78 0.82 0.81 0.81 0.82 0.79 0.62 0.58 0.49 0.37 0.44 0.45 0.41 0.33 0.27 0.26 0.26 0.25 0.25 0.24 0.23 0.21 0.18
0.40 0.37 0.31 0.27 0.34 0.36 0.37 0.41 0.45 0.48 0.55 0.65 0.73 0.73 0.72 0.77 0.86 0.87 0.86 0.86 0.81 0.65 0.66 0.67 0.54 0.54 0.41 0.32 0.29 0.24 0.23 0.24 0.24 0.21 0.21 0.20 0.19 0.19
0.39 0.39 0.40 0.41 0.38 0.38 0.35 0.37 0.42 0.47 0.52 0.57 0.69 0.70 0.64 0.69 0.82 0.86 0.83 0.80 0.75 0.70 0.73 0.77 0.59 0.52 0.38 0.43 0.38 0.29 0.23 0.26 0.26 0.20 0.18 0.17 0.16 0.17
0.31 0.33 0.34 0.37 0.36 0.37 0.37 0.41 0.43 0.47 0.46 0.53 0.58 0.62 0.67 0.70 0.71 0.74 0.82 0.92 0.89 0.78 0.76 0.82 0.70 0.55 0.45 0.50 0.46 0.35 0.33 0.37 0.35 0.25 0.18 0.16 0.16 0.17
0.30 0.30 0.31 0.28 0.26 0.27 0.31 0.43 0.53 0.50 0.46 0.51 0.67 0.84 0.90 0.87 0.77 0.78 0.89 0.97 0.96 0.97 0.82 0.82 0.83 0.69 0.62 0.51 0.49 0.50 0.53 0.60 0.53 0.38 0.25 0.20 0.19 0.23
0.32 0.32 0.32 0.25 0.21 0.22 0.29 0.40 0.45 0.43 0.49 0.66 0.87 0.98 0.95 0.87 0.77 0.73 0.80 0.90 0.97 1.03 0.85 0.81 0.86 0.86 0.87 0.71 0.50 0.54 0.65 0.78 0.79 0.64 0.43 0.31 0.26 0.24
0.32 0.30 0.29 0.26 0.22 0.23 0.26 0.32 0.34 0.42 0.61 0.81 0.92 0.90 0.76 0.65 0.63 0.60 0.62 0.70 0.83 0.85 0.77 0.77 0.86 0.87 0.89 0.82 0.64 0.59 0.71 0.87 0.93 0.83 0.65 0.51 0.41 0.34
0.29 0.27 0.26 0.28 0.29 0.36 0.37 0.35 0.41 0.57 0.72 0.81 0.84 0.77 0.67 0.59 0.55 0.55 0.54 0.62 0.67 0.62 0.54 0.57 0.70 0.75 0.82 0.83 0.80 0.83 0.90 1.04 1.06 0.99 0.85 0.69 0.55 0.44
0.29 0.32 0.39 0.44 0.45 0.48 0.52 0.56 0.58 0.61 0.62 0.70 0.71 0.65 0.57 0.52 0.51 0.48 0.52 0.58 0.63 0.63 0.55 0.51 0.58 0.70 0.82 0.82 0.90 0.98 1.00 1.18 1.19 1.07 1.00 0.89 0.73 0.56
0.26 0.38 0.54 0.59 0.59 0.58 0.56 0.56 0.57 0.56 0.58 0.59 0.57 0.56 0.54 0.50 0.48 0.44 0.45 0.49 0.57 0.59 0.57 0.52 0.53 0.57 0.59 0.64 0.76 0.84 0.91 1.05 1.15 1.08 1.02 1.08 1.02 0.79
0.31 0.50 0.59 0.61 0.63 0.57 0.52 0.49 0.47 0.48 0.47 0.47 0.48 0.49 0.50 0.48 0.47 0.44 0.42 0.44 0.50 0.50 0.49 0.47 0.47 0.50 0.47 0.48 0.67 0.78 0.81 0.99 1.06 0.97 0.87 1.00 1.12 0.93
0.33 0.45 0.51 0.56 0.56 0.50 0.46 0.45 0.45 0.44 0.41 0.40 0.43 0.44 0.44 0.43 0.43 0.44 0.42 0.42 0.45 0.46 0.42 0.38 0.39 0.41 0.43 0.54 0.70 0.85 0.85 0.89 0.90 0.83 0.78 0.79 0.98 0.97
0.32 0.37 0.42 0.45 0.47 0.44 0.41 0.39 0.38 0.36 0.34 0.34 0.36 0.39 0.39 0.38 0.36 0.38 0.38 0.36 0.39 0.41 0.40 0.36 0.35 0.37 0.39 0.48 0.70 0.85 0.87 0.72 0.65 0.69 0.71 0.72 0.83 0.83
0.29 0.32 0.34 0.33 0.34 0.35 0.36 0.35 0.32 0.31 0.30 0.30 0.31 0.33 0.34 0.34 0.35 0.31 0.29 0.25 0.29 0.32 0.34 0.36 0.35 0.29 0.30 0.32 0.51 0.69 0.75 0.82 0.70 0.60 0.59 0.60 0.58 0.49
0.26 0.29 0.29 0.28 0.27 0.27 0.27 0.26 0.25 0.24 0.22 0.23 0.28 0.32 0.32 0.31 0.30 0.26 0.24 0.26 0.27 0.29 0.30 0.30 0.28 0.25 0.26 0.33 0.48 0.63 0.64 0.59 0.57 0.59 0.56 0.41 0.29 0.30
0.25 0.26 0.24 0.23 0.22 0.20 0.20 0.19 0.18 0.19 0.19 0.20 0.24 0.28 0.27 0.25 0.23 0.20 0.17 0.16 0.16 0.18 0.22 0.25 0.25 0.23 0.24 0.28 0.34 0.40 0.41 0.36 0.27 0.27 0.41 0.45 0.35 0.35

GEFSNE_prec_meanprecacc_180.txt.gz
Total_Precipitation_Accumulation
1.42 1.52 1.58 1.60 1.61 1.56 1.57 1.63 1.70 1.67 1.55 1.36 1.32 1.27 1.26 1.27 1.40 1.10 1.11 1.30 1.18 1.10 1.04 0.99 0.97 0.90 0.84 0.80 0.77 0.76 0.75 0.78 0.84 0.90 0.95 1.03 1.15 1.31
1.14 1.27 1.36 1.44 1.57 1.61 1.67 1.70 1.70 1.70 1.64 1.44 1.38 1.36 1.28 1.21 1.41 1.18 1.18 1.23 1.07 0.97 0.88 0.82 0.79 0.75 0.72 0.71 0.72 0.70 0.68 0.68 0.69 0.72 0.77 0.82 0.89 1.00
0.92 1.01 1.13 1.19 1.30 1.38 1.45 1.49 1.58 1.62 1.62 1.51 1.42 1.41 1.36 1.33 1.33 1.20 1.10 1.03 0.98 0.92 0.79 0.72 0.69 0.66 0.65 0.67 0.69 0.68 0.67 0.66 0.66 0.67 0.70 0.73 0.76 0.80
0.77 0.83 0.90 0.94 1.03 1.07 1.15 1.23 1.30 1.37 1.42 1.52 1.58 1.51 1.42 1.40 1.30 1.14 0.95 0.83 0.82 0.85 0.76 0.71 0.70 0.71 0.71 0.71 0.70 0.68 0.64 0.57 0.55 0.58 0.62 0.63 0.63 0.66
0.61 0.66 0.71 0.76 0.79 0.80 0.85 0.91 0.99 1.09 1.25 1.35 1.42 1.45 1.41 1.41 1.38 1.10 0.92 0.89 0.71 0.70 0.66 0.67 0.68 0.68 0.68 0.64 0.60 0.57 0.54 0.46 0.39 0.39 0.43 0.48 0.51 0.52
0.48 0.52 0.56 0.57 0.56 0.59 0.62 0.68 0.77 0.94 1.10 1.19 1.16 1.19 1.25 1.19 1.24 1.14 1.01 0.89 0.74 0.55 0.52 0.50 0.52 0.52 0.53 0.49 0.47 0.45 0.44 0.43 0.39 0.36 0.34 0.32 0.32 0.33
0.40 0.40 0.41 0.43 0.46 0.46 0.46 0.54 0.68 0.86 0.96 1.04 1.06 1.00 1.00 1.00 1.01 0.95 0.94 0.89 0.75 0.58 0.52 0.42 0.40 0.43 0.48 0.48 0.45 0.39 0.35 0.31 0.31 0.29 0.28 0.26 0.25 0.25
0.41 0.34 0.32 0.33 0.36 0.38 0.40 0.47 0.57 0.68 0.75 0.82 0.89 0.90 0.88 0.86 0.90 0.89 0.89 0.89 0.84 0.67 0.62 0.53 0.41 0.48 0.49 0.47 0.40 0.33 0.31 0.30 0.29 0.29 0.29 0.29 0.27 0.25
0.45 0.41 0.34 0.29 0.36 0.38 0.40 0.43 0.47 0.50 0.58 0.70 0.78 0.80 0.79 0.83 0.93 0.94 0.93 0.92 0.86 0.71 0.72 0.72 0.58 0.58 0.45 0.37 0.36 0.31 0.28 0.29 0.27 0.25 0.26 0.26 0.26 0.26
0.44 0.44 0.45 0.44 0.41 0.41 0.39 0.42 0.46 0.52 0.57 0.61 0.74 0.76 0.70 0.75 0.88 0.92 0.88 0.85 0.80 0.74 0.78 0.82 0.64 0.57 0.43 0.49 0.44 0.35 0.29 0.30 0.30 0.24 0.22 0.22 0.22 0.24
0.34 0.36 0.37 0.39 0.38 0.40 0.41 0.46 0.48 0.52 0.49 0.55 0.60 0.65 0.71 0.73 0.74 0.77 0.85 0.96 0.94 0.82 0.80 0.87 0.74 0.59 0.50 0.57 0.52 0.41 0.37 0.41 0.39 0.28 0.22 0.21 0.21 0.23
0.33 0.32 0.32 0.30 0.29 0.30 0.35 0.48 0.57 0.54 0.49 0.54 0.69 0.86 0.91 0.89 0.79 0.80 0.92 0.99 1.00 1.01 0.86 0.87 0.87 0.73 0.66 0.56 0.55 0.56 0.58 0.64 0.57 0.41 0.29 0.25 0.23 0.27
0.35 0.35 0.33 0.27 0.23 0.24 0.31 0.42 0.48 0.45 0.52 0.69 0.91 1.02 0.99 0.90 0.79 0.75 0.83 0.94 1.01 1.06 0.88 0.85 0.91 0.91 0.93 0.76 0.56 0.60 0.71 0.83 0.84 0.67 0.46 0.36 0.31 0.28
0.34 0.32 0.30 0.27 0.24 0.24 0.27 0.33 0.35 0.43 0.63 0.84 0.96 0.93 0.79 0.68 0.65 0.63 0.65 0.74 0.87 0.88 0.79 0.81 0.91 0.94 0.96 0.88 0.70 0.65 0.77 0.92 0.98 0.89 0.70 0.56 0.48 0.40
0.30 0.28 0.27 0.29 0.30 0.37 0.38 0.36 0.42 0.58 0.74 0.84 0.87 0.80 0.69 0.62 0.58 0.59 0.57 0.66 0.71 0.65 0.55 0.60 0.74 0.80 0.89 0.91 0.87 0.90 0.97 1.10 1.12 1.05 0.93 0.74 0.61 0.52
0.30 0.33 0.41 0.45 0.47 0.49 0.53 0.58 0.60 0.64 0.64 0.72 0.73 0.67 0.59 0.55 0.54 0.51 0.56 0.61 0.67 0.66 0.57 0.53 0.62 0.75 0.88 0.88 0.97 1.06 1.09 1.27 1.26 1.14 1.08 0.98 0.80 0.63
0.28 0.40 0.56 0.61 0.62 0.60 0.59 0.59 0.61 0.60 0.61 0.61 0.60 0.58 0.56 0.52 0.50 0.46 0.48 0.52 0.60 0.62 0.60 0.55 0.57 0.62 0.64 0.70 0.83 0.91 1.00 1.15 1.23 1.16 1.11 1.16 1.09 0.85
0.31 0.52 0.61 0.64 0.66 0.59 0.55 0.50 0.49 0.50 0.49 0.49 0.51 0.52 0.53 0.51 0.50 0.46 0.44 0.47 0.53 0.53 0.53 0.51 0.52 0.56 0.54 0.53 0.72 0.85 0.89 1.07 1.14 1.05 0.95 1.07 1.18 0.98
0.35 0.48 0.56 0.61 0.60 0.52 0.48 0.47 0.47 0.46 0.43 0.42 0.45 0.47 0.47 0.46 0.46 0.47 0.45 0.45 0.48 0.48 0.45 0.41 0.44 0.49 0.52 0.62 0.74 0.88 0.90 0.96 0.97 0.93 0.86 0.86 1.03 1.01
0.35 0.41 0.46 0.49 0.50 0.47 0.43 0.41 0.41 0.40 0.38 0.38 0.40 0.42 0.43 0.42 0.40 0.41 0.42 0.39 0.42 0.44 0.42 0.39 0.40 0.45 0.49 0.57 0.77 0.90 0.90 0.76 0.71 0.77 0.78 0.79 0.88 0.88
0.31 0.35 0.36 0.36 0.36 0.37 0.39 0.37 0.34 0.34 0.33 0.33 0.34 0.37 0.38 0.37 0.38 0.34 0.32 0.29 0.32 0.36 0.40 0.42 0.40 0.35 0.36 0.41 0.58 0.76 0.81 0.85 0.75 0.66 0.65 0.68 0.65 0.56
0.27 0.30 0.30 0.29 0.28 0.28 0.28 0.28 0.28 0.26 0.24 0.25 0.30 0.35 0.35 0.34 0.33 0.30 0.29 0.32 0.33 0.35 0.37 0.36 0.34 0.31 0.33 0.42 0.56 0.70 0.71 0.64 0.62 0.64 0.62 0.48 0.36 0.36
0.26 0.27 0.25 0.24 0.23 0.22 0.21 0.21 0.21 0.21 0.21 0.23 0.26 0.31 0.30 0.28 0.27 0.24 0.21 0.21 0.22 0.24 0.28 0.32 0.31 0.31 0.32 0.36 0.42 0.47 0.46 0.41 0.33 0.33 0.45 0.50 0.41 0.39

GEFSNE_prec_meanprecacc_186.txt.gz
Total_Precipitation_Accumulation
1.53 1.63 1.67 1.70 1.71 1.65 1.66 1.71 1.78 1.73 1.58 1.39 1.35 1.30 1.29 1.31 1.44 1.14 1.14 1.32 1.21 1.12 1.05 1.01 0.99 0.93 0.87 0.83 0.80 0.78 0.79 0.82 0.88 0.95 1.01 1.09 1.22 1.39
1.26 1.38 1.46 1.54 1.67 1.69 1.74 1.76 1.77 1.77 1.70 1.48 1.41 1.39 1.32 1.26 1.47 1.23 1.21 1.27 1.11 0.99 0.90 0.84 0.81 0.77 0.74 0.75 0.75 0.73 0.71 0.70 0.71 0.75 0.81 0.86 0.95 1.06
1.03 1.11 1.22 1.28 1.38 1.46 1.51 1.53 1.62 1.66 1.67 1.56 1.46 1.45 1.39 1.37 1.39 1.26 1.16 1.08 1.02 0.95 0.81 0.74 0.71 0.67 0.66 0.69 0.72 0.72 0.70 0.68 0.68 0.69 0.72 0.76 0.80 0.85
0.84 0.91 0.98 1.02 1.10 1.13 1.20 1.27 1.33 1.41 1.47 1.57 1.63 1.55 1.45 1.43 1.35 1.20 1.01 0.89 0.86 0.88 0.79 0.74 0.73 0.73 0.73 0.73 0.72 0.71 0.67 0.59 0.57 0.60 0.64 0.64 0.65 0.69
0.68 0.74 0.81 0.83 0.86 0.86 0.91 0.96 1.04 1.16 1.32 1.41 1.48 1.50 1.46 1.45 1.42 1.17 1.01 0.98 0.76 0.74 0.69 0.70 0.71 0.70 0.69 0.67 0.63 0.60 0.57 0.49 0.43 0.42 0.45 0.50 0.53 0.55
0.57 0.62 0.65 0.65 0.63 0.66 0.68 0.73 0.82 1.00 1.17 1.26 1.22 1.24 1.30 1.25 1.30 1.20 1.08 0.97 0.82 0.61 0.57 0.53 0.56 0.56 0.55 0.52 0.50 0.48 0.47 0.46 0.44 0.41 0.38 0.36 0.35 0.36
0.47 0.48 0.48 0.51 0.53 0.53 0.53 0.60 0.73 0.91 1.01 1.09 1.11 1.05 1.05 1.06 1.07 1.00 0.99 0.95 0.81 0.63 0.57 0.46 0.44 0.47 0.51 0.51 0.48 0.42 0.37 0.34 0.34 0.32 0.31 0.29 0.28 0.28
0.45 0.40 0.37 0.37 0.41 0.42 0.44 0.51 0.62 0.73 0.80 0.87 0.93 0.95 0.93 0.91 0.95 0.95 0.93 0.93 0.88 0.71 0.66 0.58 0.46 0.53 0.54 0.51 0.44 0.37 0.34 0.33 0.33 0.32 0.32 0.31 0.29 0.27
0.49 0.46 0.38 0.32 0.39 0.42 0.43 0.47 0.51 0.53 0.62 0.75 0.83 0.84 0.84 0.89 0.97 0.97 0.98 0.96 0.90 0.75 0.76 0.75 0.61 0.61 0.48 0.40 0.40 0.35 0.32 0.33 0.32 0.29 0.30 0.29 0.29 0.29
0.48 0.47 0.48 0.47 0.44 0.44 0.42 0.45 0.49 0.55 0.60 0.66 0.79 0.80 0.74 0.78 0.91 0.95 0.92 0.88 0.83 0.78 0.82 0.85 0.67 0.59 0.45 0.51 0.46 0.36 0.30 0.33 0.34 0.27 0.25 0.24 0.24 0.26
0.37 0.38 0.38 0.42 0.42 0.43 0.44 0.48 0.51 0.56 0.53 0.59 0.64 0.69 0.75 0.77 0.77 0.80 0.89 0.99 0.97 0.84 0.82 0.89 0.76 0.61 0.52 0.58 0.54 0.42 0.38 0.43 0.41 0.31 0.25 0.23 0.23 0.25
0.35 0.35 0.34 0.31 0.31 0.32 0.38 0.52 0.61 0.58 0.53 0.57 0.72 0.88 0.94 0.91 0.81 0.82 0.93 1.01 1.02 1.03 0.87 0.88 0.89 0.75 0.68 0.57 0.56 0.57 0.60 0.66 0.59 0.43 0.31 0.27 0.27 0.31
0.37 0.37 0.35 0.28 0.25 0.26 0.33 0.45 0.51 0.49 0.55 0.73 0.93 1.03 1.01 0.92 0.81 0.76 0.84 0.95 1.02 1.07 0.89 0.86 0.92 0.93 0.95 0.78 0.57 0.61 0.73 0.85 0.85 0.69 0.47 0.39 0.34 0.31
0.35 0.34 0.32 0.29 0.25 0.26 0.29 0.35 0.37 0.46 0.65 0.86 0.97 0.94 0.80 0.69 0.67 0.64 0.67 0.75 0.89 0.89 0.80 0.83 0.92 0.96 0.98 0.90 0.72 0.66 0.79 0.94 1.00 0.91 0.72 0.59 0.52 0.44
0.31 0.30 0.30 0.31 0.32 0.38 0.39 0.37 0.43 0.60 0.76 0.86 0.88 0.82 0.70 0.62 0.59 0.60 0.59 0.68 0.73 0.66 0.56 0.61 0.76 0.83 0.92 0.93 0.89 0.92 0.99 1.13 1.14 1.09 0.96 0.78 0.65 0.56
0.31 0.35 0.43 0.47 0.48 0.50 0.54 0.59 0.63 0.67 0.68 0.76 0.76 0.69 0.61 0.56 0.55 0.53 0.57 0.63 0.69 0.67 0.58 0.54 0.63 0.78 0.90 0.90 0.98 1.08 1.11 1.30 1.30 1.20 1.13 1.04 0.87 0.69
0.29 0.41 0.57 0.62 0.63 0.61 0.60 0.61 0.64 0.63 0.65 0.64 0.62 0.60 0.58 0.53 0.51 0.47 0.49 0.54 0.63 0.64 0.62 0.56 0.58 0.64 0.66 0.72 0.85 0.93 1.01 1.17 1.26 1.20 1.16 1.22 1.18 0.94
0.32 0.52 0.62 0.65 0.67 0.61 0.57 0.54 0.53 0.53 0.51 0.51 0.53 0.54 0.55 0.52 0.51 0.48 0.46 0.49 0.55 0.54 0.53 0.52 0.54 0.58 0.56 0.55 0.74 0.87 0.91 1.09 1.17 1.10 1.00 1.13 1.23 1.04
0.35 0.48 0.56 0.61 0.61 0.54 0.50 0.49 0.49 0.48 0.45 0.44 0.47 0.48 0.48 0.48 0.48 0.49 0.47 0.47 0.49 0.49 0.46 0.42 0.46 0.51 0.54 0.63 0.75 0.89 0.91 0.97 1.00 0.96 0.91 0.92 1.09 1.07
0.35 0.41 0.47 0.50 0.51 0.47 0.44 0.42 0.42 0.42 0.40 0.39 0.40 0.43 0.44 0.43 0.41 0.43 0.43 0.40 0.43 0.45 0.43 0.41 0.42 0.47 0.52 0.59 0.79 0.91 0.91 0.78 0.74 0.79 0.81 0.85 0.95 0.95
0.32 0.36 0.37 0.37 0.37 0.38 0.39 0.38 0.35 0.35 0.34 0.34 0.35 0.37 0.38 0.38 0.38 0.35 0.33 0.30 0.34 0.38 0.41 0.43 0.42 0.37 0.39 0.43 0.60 0.77 0.82 0.87 0.78 0.69 0.68 0.72 0.71 0.63
0.28 0.31 0.31 0.30 0.29 0.28 0.28 0.29 0.29 0.28 0.25 0.26 0.31 0.36 0.36 0.35 0.34 0.30 0.30 0.33 0.35 0.37 0.38 0.37 0.36 0.34 0.37 0.45 0.59 0.72 0.72 0.66 0.65 0.68 0.66 0.52 0.41 0.42
0.27 0.28 0.26 0.24 0.23 0.22 0.22 0.22 0.22 0.23 0.23 0.24 0.28 0.32 0.31 0.29 0.27 0.24 0.22 0.22 0.23 0.25 0.30 0.33 0.33 0.33 0.35 0.39 0.45 0.49 0.48 0.44 0.37 0.37 0.50 0.54 0.46 0.44